Location: *
(48.5907°N, 17.1391°E)
Time: 01:49:39
(UTC+00:00)

Daily predictions for brighter satellites

Satellite Brightness Start Highest point End
(mag) Time Altitude Azimuth Time Altitude Azimuth Time Altitude Azimuth
Cosmos 2082 Rocket 4.4 00:00:39 10° NNW 00:02:00 18° NNW 00:02:00 18° NNW
ADEOS II 4.4 00:12:28 10° NE 00:15:30 17° E 00:15:30 17° E
Cosmos 2369 Rocket 4.3 00:25:43 18° E 00:25:43 18° E 00:29:07 10° ENE
Lacrosse 5 3.7 00:29:38 28° NNE 00:29:38 28° NNE 00:32:54 10° ENE
Resurs 1-4 Rocket 3.4 00:25:54 10° NNE 00:29:07 36° NE 00:29:07 36° NE
USA 238 DEB 4.3 00:34:10 47° E 00:34:10 47° E 00:39:47 10° NE
USA 238 4.3 00:34:15 46° E 00:34:15 46° E 00:39:53 10° NE
Cosmos 2344 4.1 00:44:19 43° SE 00:44:49 44° ESE 00:52:20 10° NE
Cosmos 2278 Rocket 3.5 00:51:01 33° NNW 00:51:01 33° NNW 00:54:52 10° NNE
SL-16 R/B 3.5 00:53:22 37° NW 00:53:22 37° NW 00:57:07 10° NNW
ARIANE 5 R/B 3.8 00:52:23 10° NNE 00:56:39 34° E 00:56:39 34° E
NOSS 3-3 (A) 4.3 00:56:31 10° NW 01:03:58 86° SW 01:12:13 10° SE
NOSS 3-3 (C) 4.3 00:56:37 10° NW 01:04:04 86° SW 01:12:19 10° SE
Cosmos 1943 Rocket 3.1 01:08:04 40° ESE 01:08:04 40° ESE 01:13:02 10° NE
CZ-4B R/B 4.5 01:10:24 14° NNE 01:10:24 14° NNE 01:11:05 10° N
CZ-2D R/B 2.9 01:04:53 10° N 01:08:35 45° N 01:08:35 45° N
NPP 4.3 01:07:33 10° N 01:11:33 49° N 01:11:33 49° N
Cosmos 1125 Rocket 4.0 01:09:41 10° NNW 01:14:27 58° NE 01:14:27 58° NE
NOSS 3-2 (A) 3.4 01:17:03 73° ESE 01:17:03 73° ESE 01:23:26 10° NE
ATLAS 5 CENTAUR R/B 3.5 01:18:58 26° NNW 01:18:58 26° NNW 01:22:47 10° NNE
IRS-1C 4.4 01:13:07 10° NNE 01:17:55 66° ENE 01:17:55 66° ENE
ATLAS 3B R/B 3.3 01:19:23 40° SE 01:20:24 43° ESE 01:26:33 10° NE
NOSS 3-2 (C) 3.7 01:20:40 54° SE 01:20:52 54° ESE 01:27:16 10° NE
MOS 1-B Rocket 4.3 01:16:12 10° N 01:22:06 55° NW 01:22:06 55° NW
ATLAS 5 CENTAUR R/B 4.0 01:33:41 20° NE 01:33:41 20° NE 01:35:05 10° NE
Meteor 1-25 Rocket 4.1 01:30:23 10° NNW 01:35:58 84° NW 01:35:58 84° NW
Cosmos 841 Rocket 4.0 01:37:51 49° NNW 01:37:51 49° NNW 01:42:08 10° NNE
CZ-2D R/B 4.3 01:39:12 10° NNE 01:42:27 47° ENE 01:42:27 47° ENE
Cosmos 2228 Rocket 4.1 01:49:00 37° NNW 01:49:00 37° NNW 01:51:57 10° N
USA 267 4.2 01:42:01 10° ENE 01:48:09 44° N 01:52:56 17° WNW
NOAA 9 4.5 01:46:01 10° NNE 01:51:26 81° WNW 01:51:47 76° WSW
Meteor 1-14 Rocket 4.0 01:47:14 10° NNW 01:52:48 86° W 01:53:54 59° S
IRS-P3 4.4 01:49:31 10° N 01:54:24 51° WNW 01:54:24 51° WNW
Unknown 4.5 01:56:19 44° ESE 01:56:19 44° ESE 01:59:39 10° ENE
ADEOS II 1.9 01:50:49 10° NNE 01:56:05 78° WNW 01:56:26 74° WSW
Spot 4 Rocket 3.9 01:51:55 10° NNE 01:57:06 89° W 01:57:40 72° SSW
Unknown 4.4 01:57:56 46° ESE 01:57:56 46° ESE 02:01:19 10° ENE
Meteor 1-26 Rocket 4.0 01:56:48 70° SW 01:57:22 80° WNW 02:02:58 10° N
Unknown 4.3 01:59:31 48° ESE 01:59:31 48° ESE 02:02:59 10° ENE
CZ-2C R/B 3.2 01:56:11 10° NNE 01:59:58 62° E 01:59:58 62° E
CENTAUR R/B 2.7 01:59:00 47° S 02:00:49 70° SE 02:07:52 10° NE
Unknown 4.2 02:02:43 51° ESE 02:02:43 51° ESE 02:06:20 10° ENE
Unknown 4.0 02:04:36 58° ESE 02:04:36 58° ESE 02:08:18 10° ENE
Cosmos 1606 4.4 02:07:09 25° NNW 02:07:09 25° NNW 02:09:07 10° N
Unknown 3.9 02:06:08 60° ESE 02:06:08 60° ESE 02:09:55 10° ENE
Unknown 4.0 02:06:18 57° ESE 02:06:18 57° ESE 02:10:04 10° ENE
IRS-1D 4.2 02:01:17 10° N 02:06:05 39° WNW 02:06:05 39° WNW
IRIDIUM 104 4.4 02:06:58 56° WNW 02:06:58 56° WNW 02:12:03 10° N
Cosmos 2369 Rocket 2.1 02:07:32 57° SW 02:08:45 82° WNW 02:14:28 10° NNE
Unknown 3.9 02:09:06 59° SE 02:09:06 59° SE 02:12:59 10° ENE
Resurs 1-4 Rocket 3.5 02:06:27 10° N 02:10:11 24° NW 02:10:11 24° NW
Lacrosse 5 2.5 02:08:52 20° NW 02:12:10 54° NNE 02:17:07 10° ESE
Unknown 3.8 02:12:18 63° SE 02:12:18 63° SE 02:16:19 10° ENE
Unknown 3.7 02:13:53 65° SE 02:13:53 65° SE 02:17:59 10° ENE
Unknown 3.7 02:15:29 67° SSE 02:15:32 67° SSE 02:19:39 10° ENE
Cosmos 1833 4.0 02:10:09 10° NNW 02:15:48 83° WSW 02:21:25 10° SSE
Unknown 3.6 02:17:06 68° SSE 02:17:11 68° SSE 02:21:20 10° ENE
Cosmos 220 Rocket 3.8 02:18:08 71° SSW 02:18:37 89° ESE 02:22:54 10° NNE
Cosmos 44 3.6 02:17:16 40° S 02:18:48 60° ESE 02:23:32 10° NE
Cosmos 540 Rocket 4.3 02:19:12 33° WNW 02:19:24 33° NW 02:24:05 10° N
Cosmos 1707 Rocket 3.4 02:19:51 64° SSW 02:20:29 81° W 02:24:55 10° N
PSLV R/B 4.5 02:18:42 10° SSE 02:22:46 59° ENE 02:26:49 10° N
Unknown 3.5 02:23:27 69° SSW 02:23:48 75° SSE 02:27:58 10° ENE
USA 238 DEB 4.1 02:21:37 34° W 02:24:10 49° NW 02:30:58 10° NE
USA 238 4.1 02:21:42 34° W 02:24:16 49° NW 02:31:05 10° NE
Meteor 2-6 Rocket 4.5 02:20:06 20° S 02:24:16 75° E 02:30:15 10° NNE
Cosmos 1500 4.4 02:21:01 10° N 02:24:36 41° ENE 02:28:10 10° SSE
Unknown 3.5 02:25:04 68° SSW 02:25:29 76° SSE 02:29:37 10° ENE
Unknown 3.5 02:26:25 62° NW 02:26:41 64° NNW 02:30:29 10° ENE
Unknown 3.5 02:26:40 66° SSW 02:27:08 78° SSE 02:31:18 10° ENE
Cosmos 1733 Rocket 3.1 02:23:15 10° N 02:27:45 82° E 02:32:12 10° SSE
Unknown 3.5 02:28:15 65° SW 02:28:47 79° SSE 02:32:57 10° ENE
Atlas Centaur 2 4.3 02:29:28 14° S 02:29:40 14° S 02:33:16 10° SSE
SeaSat 1 3.7 02:25:23 10° NE 02:29:59 38° ESE 02:34:22 11° S
Unknown 3.5 02:29:37 61° WNW 02:30:02 68° NNW 02:33:55 10° ENE
Unknown 3.5 02:29:52 63° SW 02:30:29 81° SSE 02:34:38 10° ENE
Unknown 3.5 02:33:04 59° SW 02:33:48 84° SSE 02:37:59 10° ENE
Meteor 1-28 Rocket 3.8 02:35:36 40° NW 02:35:36 40° NW 02:38:26 10° NNW
Cosmos 1092 Rocket 3.9 02:31:12 25° SSW 02:34:57 74° W 02:41:10 10° N
Cosmos 2278 Rocket 4.4 02:33:25 10° NW 02:35:23 12° NNW 02:37:21 10° N
Starlink (trailer) 3.5 02:34:37 57° SW 02:35:24 86° SSE 02:39:34 10° ENE
ARIANE 5 R/B 3.1 02:31:31 10° N 02:36:11 36° WNW 02:36:58 34° W
Unknown 3.5 02:36:16 55° WSW 02:37:07 87° SSE 02:41:18 10° ENE
Unknown 3.5 02:37:51 53° WSW 02:38:47 89° SSE 02:42:57 10° ENE
SL-24 DEB 4.1 02:35:57 22° S 02:38:58 71° W 02:43:42 10° N
ADEOS 3.8 02:34:26 10° NNE 02:39:41 71° ESE 02:44:41 11° S
SL-4 R/B 2.2 02:41:21 40° S 02:41:21 40° S 02:44:10 10° SE
Meteor 1-10 Rocket 4.3 02:38:41 15° S 02:43:37 87° WNW 02:49:37 10° NNE
Unknown 4.2 02:42:58 31° NW 02:44:00 39° N 02:47:20 10° ENE
Unknown 4.1 02:44:04 29° NW 02:45:06 38° N 02:48:10 10° E
Unknown 3.5 02:44:15 46° WSW 02:45:27 85° NNW 02:49:36 10° ENE
Unknown 3.5 02:45:53 44° WSW 02:47:08 84° NNW 02:51:18 10° ENE
Meteor 1-11 Rocket 3.6 02:41:51 10° NNW 02:47:31 89° E 02:53:03 10° S
Unknown 3.5 02:46:20 43° WSW 02:47:38 83° NNW 02:51:47 10° ENE
ATLAS CENTAUR R/B 4.1 02:45:34 10° NNW 02:49:00 20° NNE 02:52:15 10° ENE
CZ-2D R/B 4.0 02:46:57 10° NNW 02:49:15 13° NW 02:49:54 13° WNW
Unknown 3.6 02:49:02 41° WSW 02:50:25 81° NNW 02:54:35 10° ENE
Falcon 9 debris 4.3 02:49:33 26° NW 02:50:54 38° N 02:54:11 10° ENE
Cosmos 1943 Rocket 2.8 02:49:36 29° W 02:51:39 39° NW 02:56:51 10° NNE
Cosmos 1812 3.0 02:48:22 13° S 02:51:45 69° E 02:55:36 10° NNE
Unknown 3.6 02:50:43 39° WSW 02:52:12 78° NNW 02:56:21 10° ENE
Unknown 4.0 02:51:03 31° WNW 02:52:24 46° N 02:56:01 10° ENE
Unknown 3.6 02:51:39 38° WSW 02:53:09 79° NNW 02:57:20 10° ENE
USA 215 4.5 02:48:33 10° ENE 02:54:30 36° SE 03:00:25 10° SSW
Unknown 3.6 02:53:53 36° W 02:55:29 75° NNW 02:59:38 10° ENE
Cosmos 1315 Rocket 3.2 02:52:08 10° S 02:56:13 66° E 03:00:21 10° NNE
Unknown 3.6 02:55:26 35° WSW 02:57:05 76° NNW 03:01:15 10° ENE
Unknown 3.6 02:55:59 34° WSW 02:57:41 75° NNW 03:01:50 10° ENE
Cosmos 2344 4.0 02:54:20 23° WSW 02:59:04 53° NW 03:07:40 10° NE
Unknown 3.6 02:58:32 33° WSW 03:00:20 75° NNW 03:04:30 10° ENE
Cosmos 1782 4.1 03:01:20 23° WNW 03:01:20 23° WNW 03:04:31 10° NNW
Unknown 3.7 03:01:48 30° W 03:03:44 71° NNW 03:07:53 10° ENE
ATLAS 5 CENTAUR R/B 4.2 03:01:47 10° NW 03:04:54 16° N 03:08:15 10° NE
Unknown 3.7 03:03:22 29° W 03:05:22 70° NNW 03:09:32 10° ENE
Unknown 3.7 03:04:58 28° W 03:07:03 69° NNW 03:11:12 10° ENE
NOSS 3-2 (A) 4.5 03:04:27 19° W 03:08:18 36° NNW 03:14:38 10° NE
Unknown 3.7 03:06:36 27° W 03:08:45 67° NNW 03:12:53 10° ENE
Lacrosse 5 rocket 3.5 03:11:37 12° SSW 03:11:37 12° SSW 03:12:15 10° SSW
ATLAS 3B R/B 2.9 03:06:40 21° WSW 03:11:00 53° NW 03:17:28 10° NE
NOSS 3-2 (C) 4.2 03:08:07 20° W 03:12:00 43° NNW 03:18:34 10° NE
Unknown 3.8 03:09:48 25° W 03:12:05 65° NNW 03:16:13 10° ENE
Cosmos 1400 Rocket 3.5 03:11:56 25° WSW 03:13:18 33° WNW 03:16:50 10° N
Unknown 3.8 03:11:27 24° W 03:13:47 64° NNW 03:17:54 10° ENE
Unknown 3.8 03:12:58 23° W 03:15:23 64° NNW 03:19:32 10° ENE
Unknown 3.1 03:13:38 20° NW 03:15:24 58° NNE 03:18:14 10° E
Unknown 4.3 03:13:25 16° WNW 03:15:53 39° N 03:19:15 10° ENE
Cosmos 1703 Rocket 4.1 03:12:07 10° S 03:16:29 63° E 03:20:52 10° NNE
Unknown 3.8 03:14:32 23° W 03:17:01 63° NNW 03:21:09 10° ENE
Cosmos 1553 Rocket 3.9 03:10:49 10° NNW 03:17:03 68° W 03:23:09 10° S
Unknown 3.9 03:16:04 21° W 03:18:33 56° NNW 03:22:33 10° ENE
Unknown 3.8 03:16:25 22° W 03:19:00 62° NNW 03:23:08 10° ENE
Cosmos 1666 2.9 03:15:40 10° N 03:19:26 71° E 03:23:11 10° SSE
Unknown 3.8 03:17:37 21° W 03:20:14 63° NNW 03:24:22 10° ENE
IDEFIX/ARIANE 42P 2.6 03:15:58 10° N 03:21:10 60° WNW 03:26:20 10° SSW
Aureole 2 Rocket 1.6 03:19:49 23° SW 03:21:18 67° WNW 03:23:57 10° NNE
Meteor 1-31 Rocket 3.6 03:17:27 10° NNE 03:21:19 54° E 03:25:08 10° S
Cosmos 773 Rocket 3.9 03:18:17 10° SSW 03:23:28 76° WNW 03:28:38 10° NNE
Unknown 3.8 03:20:47 20° W 03:23:33 61° NNW 03:27:40 10° ENE
Cosmos 1340 2.8 03:19:55 10° NNW 03:23:36 51° W 03:27:16 10° S
H-2A R/B 2.3 03:20:24 10° N 03:24:12 59° WNW 03:27:58 10° SSW
Cosmos 2242 Rocket 3.6 03:20:00 10° SSW 03:24:28 61° WNW 03:28:56 10° N
Unknown 3.9 03:22:24 19° W 03:25:14 61° NNW 03:29:21 10° ENE
Unknown 3.9 03:24:10 18° W 03:27:05 58° NNW 03:31:11 10° ENE
Unknown 4.0 03:25:26 18° W 03:28:21 56° NNW 03:32:24 10° ENE
Unknown 3.9 03:25:36 18° W 03:28:33 59° NNW 03:32:40 10° ENE
Cosmos 1862 Rocket 4.1 03:24:47 12° SW 03:28:36 39° WNW 03:32:51 10° N
Iridium 4 Rocket 4.0 03:26:11 15° SW 03:28:59 27° WNW 03:32:38 10° NNW
Cosmos 2084 Rocket 4.1 03:25:42 10° WNW 03:29:43 35° WSW 03:33:40 10° S
USA 81 4.4 03:25:04 10° SSW 03:30:07 44° WNW 03:35:11 10° N
Unknown 3.9 03:27:10 17° W 03:30:13 58° NNW 03:34:19 10° ENE
USA 267 3.6 03:24:10 10° ESE 03:30:38 68° NNE 03:37:09 10° NW
Unknown 4.1 03:30:13 11° WNW 03:33:23 41° N 03:36:42 10° E
Cosmos 2026 Rocket 4.5 03:27:34 10° SW 03:33:28 41° WNW 03:39:29 10° N
Unknown 4.0 03:30:23 16° W 03:33:33 57° NNW 03:37:39 10° ENE
ADEOS II 3.9 03:32:12 10° NNW 03:34:58 15° NW 03:37:22 11° W
FALCON 9 DEB 4.2 03:31:49 11° WNW 03:35:05 41° N 03:38:28 10° E
Unknown 4.0 03:31:59 15° W 03:35:14 56° NNW 03:39:20 10° ENE
Cosmos 1536 3.2 03:32:27 10° NNW 03:36:12 40° W 03:39:55 10° SSW
Cosmos 1346 Rocket 3.4 03:33:07 10° NNW 03:36:54 36° W 03:40:39 10° SSW
Unknown 4.0 03:33:35 15° W 03:36:54 56° NNW 03:40:59 10° ENE
Timation 2 Rocket 4.4 03:31:50 10° NW 03:37:08 33° WSW 03:42:23 10° SSW
Unknown 4.0 03:35:11 14° W 03:38:34 55° NNW 03:42:39 10° ENE
Cosmos 44 Rocket 3.5 03:34:48 10° SSW 03:39:50 77° SE 03:44:45 10° NE
Okean 1-7 3.0 03:37:16 10° S 03:41:40 86° W 03:46:06 10° N
Unknown 4.1 03:38:23 13° W 03:41:55 54° NNW 03:46:00 10° ENE
Unknown 4.1 03:40:15 12° W 03:43:54 51° NNW 03:47:58 10° ENE
Cosmos 2227 Rocket 2.9 03:39:45 10° NNW 03:45:24 61° ENE 03:51:01 10° SE
Unknown 4.1 03:41:48 12° W 03:45:31 51° NNW 03:49:35 10° ENE
Unknown 4.1 03:41:58 12° W 03:45:40 52° NNW 03:49:45 10° ENE
Cosmos 1656 Rocket 4.4 03:41:58 11° WSW 03:47:04 37° NW 03:52:19 10° NNE
Cosmos 2219 3.2 03:41:49 10° NNW 03:47:34 84° WSW 03:53:13 10° SSE
MSX 4.0 03:42:35 10° N 03:48:13 57° WNW 03:53:48 10° SW
Unknown 4.1 03:44:45 11° W 03:48:35 52° NNW 03:52:38 10° ENE
Cosmos 1484 Rocket 4.0 03:44:57 10° NNE 03:48:35 44° E 03:52:09 10° S
Cosmos 1680 Rocket 4.4 03:44:00 10° S 03:49:05 52° ESE 03:54:10 10° NNE
CZ-2C R/B 2.4 03:44:32 10° N 03:49:25 72° WNW 03:54:26 10° SSW
Cosmos 923 Rocket 4.5 03:44:23 10° S 03:49:41 69° ESE 03:55:00 10° NNE
Unknown 4.2 03:47:58 10° W 03:51:56 51° NNW 03:55:59 10° ENE
CENTAUR R/B 3.5 03:46:12 11° W 03:52:04 39° NNW 03:59:00 10° NE
Meteor 2-13 Rocket 4.5 03:46:18 10° SSW 03:52:28 77° W 03:58:40 10° N
COSMO-SKYMED 1 2.8 03:49:15 10° SSE 03:53:35 76° ENE 03:57:56 10° N
Unknown 4.2 03:49:33 10° W 03:53:35 50° N 03:57:38 10° ENE
Cosmos 2369 Rocket 3.8 03:49:35 10° W 03:53:41 20° NW 03:57:48 10° N
Cosmos 1655 Rocket 4.2 03:48:51 10° SSW 03:54:55 53° WNW 04:01:05 10° N
Lacrosse 5 2.2 03:50:20 10° WNW 03:55:07 44° SW 03:59:53 10° SSE
Unknown 4.2 03:51:13 10° W 03:55:16 50° N 03:59:19 10° ENE
Cosmos 2297 Rocket 2.5 03:50:25 10° NNW 03:56:06 75° ENE 04:01:45 10° SSE
Cosmos 1908 Rocket 4.3 03:52:36 10° NNW 03:56:25 31° W 04:00:13 10° SSW
CZ-4B R/B 3.2 03:51:58 10° N 03:56:29 66° WNW 04:00:55 10° SSW
Okean 2 Rocket 3.4 03:52:13 10° N 03:56:46 75° E 04:01:17 10° SSE
Unknown 4.2 03:52:54 10° W 03:56:57 49° N 04:01:00 10° ENE
S3M 4.3 03:53:15 10° NNW 03:59:01 43° W 04:04:50 10° SSW
Cosmos 1538 Rocket 4.2 03:54:20 10° SW 03:59:21 50° WNW 04:04:23 10° NNE
Cosmos 44 4.4 03:56:00 10° W 04:00:19 29° NW 04:04:28 10° NNE
Cosmos 2056 Rocket 4.2 03:58:04 10° NNW 04:03:20 60° ENE 04:08:28 10° SE
Unknown 4.2 03:59:34 10° W 04:03:36 48° N 04:07:38 10° ENE
Unknown 4.3 04:01:15 10° W 04:05:17 48° N 04:09:19 10° ENE
Unknown 4.4 04:01:48 10° WNW 04:05:28 41° N 04:09:08 10° ENE
Iridium 2 4.1 04:01:54 10° N 04:05:44 72° E 04:09:32 10° S
